UAL1818 KCHS-KDEN

Flight info

Callsign UAL1818
Flight time 3h 22m
Altitude 36000
Route STUNO1 IRQ HITMN BUM HYS J24 OATHE CLASH5
Aircraft A319/M-VGDW/C

Departure

Time 2026-04-22 16:41
Airport Charleston International Airport (KCHS)

Arrival

Time 2026-04-22 20:03
Airport Denver International Airport (KDEN)
Time Latitude Longitude Altitude Speed Heading
2026-04-22 16:27 32.88604 -80.03749 37 ft 0 kts 241°
2026-04-22 16:35 32.88610 -80.03736 37 ft 2 kts 244°
2026-04-22 16:35 32.88617 -80.03719 37 ft 2 kts 248°
2026-04-22 16:35 32.88622 -80.03700 33 ft 2 kts 256°
2026-04-22 16:35 32.88625 -80.03681 37 ft 2 kts 291°
2026-04-22 16:36 32.88614 -80.03668 34 ft 2 kts
2026-04-22 16:36 32.88609 -80.03668 34 ft 0 kts
2026-04-22 16:38 32.88628 -80.03665 38 ft 10 kts
2026-04-22 16:38 32.88725 -80.03649 35 ft 16 kts
2026-04-22 16:38 32.88850 -80.03628 40 ft 19 kts
2026-04-22 16:39 32.88982 -80.03607 46 ft 20 kts
2026-04-22 16:39 32.89083 -80.03497 49 ft 22 kts 53°
2026-04-22 16:39 32.89161 -80.03366 47 ft 12 kts 57°
2026-04-22 16:39 32.89219 -80.03269 44 ft 16 kts 30°
2026-04-22 16:40 32.89327 -80.03319 46 ft 20 kts 328°
2026-04-22 16:40 32.89573 -80.03502 44 ft 73 kts 327°
2026-04-22 16:40 32.91079 -80.04642 231 ft 161 kts 325°
2026-04-22 16:41 32.91999 -80.05308 890 ft 156 kts 328°
2026-04-22 16:41 32.92903 -80.06024 1476 ft 156 kts 327°
2026-04-22 16:41 32.93670 -80.06970 1990 ft 167 kts 296°
2026-04-22 16:41 32.93881 -80.08420 2291 ft 190 kts 274°
2026-04-22 16:42 32.93957 -80.10088 2586 ft 213 kts 274°
2026-04-22 16:42 32.94043 -80.11980 2957 ft 241 kts 274°
2026-04-22 16:42 32.94140 -80.14077 3695 ft 261 kts 275°
2026-04-22 16:42 32.94239 -80.16243 4635 ft 268 kts 275°
2026-04-22 16:43 32.94342 -80.18472 5545 ft 271 kts 275°
2026-04-22 16:43 32.94450 -80.20723 6452 ft 274 kts 275°
2026-04-22 16:43 32.94559 -80.23007 7388 ft 278 kts 276°
2026-04-22 16:43 32.94670 -80.25329 8403 ft 281 kts 276°
2026-04-22 16:44 32.94781 -80.27662 9327 ft 284 kts 276°
2026-04-22 16:44 32.94891 -80.29999 10177 ft 288 kts 276°
2026-04-22 16:44 32.95009 -80.32470 10507 ft 310 kts 276°
2026-04-22 16:44 32.95137 -80.35103 10990 ft 323 kts 276°
2026-04-22 16:45 32.95261 -80.37793 11709 ft 327 kts 276°
2026-04-22 16:45 32.95381 -80.40507 12467 ft 330 kts 276°
2026-04-22 16:45 32.95503 -80.43241 13244 ft 332 kts 276°
2026-04-22 16:45 32.95628 -80.45997 14029 ft 334 kts 276°
2026-04-22 16:46 32.95756 -80.48784 14690 ft 337 kts 276°
2026-04-22 16:46 32.95886 -80.51583 15343 ft 339 kts 276°
2026-04-22 16:46 32.96015 -80.54400 15987 ft 342 kts 276°
2026-04-22 16:46 32.96145 -80.57201 16629 ft 344 kts 276°
2026-04-22 16:47 32.96275 -80.60064 17278 ft 347 kts 276°
2026-04-22 16:47 32.96404 -80.62956 17938 ft 350 kts 276°
2026-04-22 16:47 32.96488 -80.64877 18368 ft 352 kts 276°
2026-04-22 16:47 32.96659 -80.68768 19164 ft 355 kts 276°
2026-04-22 16:48 32.96790 -80.71709 19721 ft 357 kts 276°
2026-04-22 16:48 32.96920 -80.74672 20297 ft 359 kts 276°
2026-04-22 16:48 32.97049 -80.77655 20878 ft 361 kts 276°
2026-04-22 16:48 32.97179 -80.80648 21442 ft 363 kts 276°
2026-04-22 16:49 32.97305 -80.83623 22001 ft 365 kts 276°
2026-04-22 16:49 32.97475 -80.86649 22547 ft 365 kts 281°
2026-04-22 16:49 32.98039 -80.89592 23081 ft 364 kts 291°
2026-04-22 16:49 32.99057 -80.92347 23629 ft 364 kts 301°
2026-04-22 16:50 33.00366 -80.94944 24107 ft 366 kts 302°
2026-04-22 16:50 33.01688 -80.97552 24539 ft 368 kts 302°
2026-04-22 16:50 33.02991 -81.00136 24970 ft 369 kts 302°
2026-04-22 16:50 33.04319 -81.02772 25392 ft 371 kts 302°
2026-04-22 16:51 33.05651 -81.05420 25815 ft 373 kts 302°
2026-04-22 16:51 33.06991 -81.08089 26231 ft 375 kts 302°
2026-04-22 16:51 33.08334 -81.10767 26661 ft 377 kts 302°
2026-04-22 16:51 33.09684 -81.13460 27081 ft 379 kts 302°
2026-04-22 16:52 33.11042 -81.16167 27494 ft 381 kts 302°
2026-04-22 16:52 33.12388 -81.18851 27884 ft 383 kts 301°
2026-04-22 16:52 33.13760 -81.21592 28285 ft 385 kts 301°
2026-04-22 16:52 33.15138 -81.24348 28692 ft 387 kts 301°
2026-04-22 16:53 33.16527 -81.27124 29089 ft 389 kts 301°
2026-04-22 16:53 33.17902 -81.29875 29470 ft 391 kts 301°
2026-04-22 16:53 33.19304 -81.32681 29868 ft 393 kts 301°
2026-04-22 16:53 33.20709 -81.35497 30252 ft 395 kts 301°
2026-04-22 16:54 33.22109 -81.38303 30577 ft 397 kts 301°
2026-04-22 16:54 33.23527 -81.41147 30888 ft 399 kts 301°
2026-04-22 16:54 33.24949 -81.44005 31212 ft 400 kts 301°
2026-04-22 16:54 33.26370 -81.46870 31523 ft 402 kts 301°
2026-04-22 16:55 33.27796 -81.49747 31833 ft 403 kts 301°
2026-04-22 16:55 33.29234 -81.52642 32142 ft 404 kts 301°
2026-04-22 16:55 33.30666 -81.55524 32568 ft 402 kts 301°
2026-04-22 16:55 33.32070 -81.58356 33001 ft 400 kts 301°
2026-04-22 16:56 33.33488 -81.61224 33432 ft 398 kts 301°
2026-04-22 16:56 33.34894 -81.64072 33858 ft 397 kts 300°
2026-04-22 16:56 33.36295 -81.66913 34287 ft 395 kts 300°
2026-04-22 16:56 33.37696 -81.69751 34652 ft 394 kts 300°
2026-04-22 16:57 33.39068 -81.72531 35016 ft 392 kts 301°
2026-04-22 16:57 33.40455 -81.75343 35378 ft 391 kts 301°
2026-04-22 16:57 33.41837 -81.78145 35712 ft 389 kts 301°
2026-04-22 16:57 33.43217 -81.80938 36055 ft 388 kts 301°
2026-04-22 16:58 33.44220 -81.82711 36210 ft 388 kts 307°
2026-04-22 16:58 33.47882 -81.87428 36268 ft 384 kts 312°
2026-04-22 16:59 33.52174 -81.92807 36283 ft 383 kts 312°
2026-04-22 16:59 33.55233 -81.96653 36283 ft 382 kts 312°
2026-04-22 17:00 33.58913 -82.01284 36282 ft 382 kts 312°
2026-04-22 17:00 33.64393 -82.08186 36284 ft 382 kts 312°
2026-04-22 17:01 33.68061 -82.12818 36281 ft 382 kts 312°
2026-04-22 17:01 33.71535 -82.17581 36281 ft 380 kts 304°
2026-04-22 17:02 33.74524 -82.22831 36278 ft 380 kts 304°
2026-04-22 17:02 33.77517 -82.28077 36287 ft 379 kts 304°
2026-04-22 17:03 33.80511 -82.33312 36289 ft 379 kts 304°
2026-04-22 17:03 33.83485 -82.38536 36286 ft 380 kts 304°
2026-04-22 17:04 33.86470 -82.43797 36274 ft 380 kts 304°
2026-04-22 17:04 33.89436 -82.49039 36277 ft 381 kts 304°
2026-04-22 17:05 33.92418 -82.54321 36277 ft 381 kts 304°
2026-04-22 17:05 33.95407 -82.59606 36273 ft 381 kts 304°
2026-04-22 17:06 33.98381 -82.64858 36271 ft 381 kts 304°
2026-04-22 17:06 34.01375 -82.70152 36270 ft 382 kts 304°
2026-04-22 17:07 34.04364 -82.75464 36271 ft 382 kts 304°
2026-04-22 17:07 34.07330 -82.80752 36270 ft 382 kts 304°
2026-04-22 17:08 34.10321 -82.86075 36271 ft 383 kts 304°
2026-04-22 17:08 34.13297 -82.91377 36268 ft 383 kts 304°
2026-04-22 17:09 34.16285 -82.96724 36264 ft 384 kts 303°
2026-04-22 17:09 34.19281 -83.02079 36261 ft 384 kts 304°
2026-04-22 17:10 34.22273 -83.07436 36257 ft 385 kts 303°
2026-04-22 17:10 34.25244 -83.12774 36253 ft 385 kts 303°
2026-04-22 17:11 34.28242 -83.18165 36252 ft 385 kts 303°
2026-04-22 17:11 34.31237 -83.23550 36254 ft 386 kts 303°
2026-04-22 17:12 34.34222 -83.28912 36258 ft 386 kts 303°
2026-04-22 17:12 34.37223 -83.34324 36265 ft 387 kts 303°
2026-04-22 17:13 34.40215 -83.39752 36272 ft 387 kts 303°
2026-04-22 17:13 34.43194 -83.45155 36278 ft 388 kts 303°
2026-04-22 17:14 34.46200 -83.50602 36278 ft 388 kts 303°
2026-04-22 17:14 34.49178 -83.56014 36278 ft 388 kts 303°
2026-04-22 17:15 34.52181 -83.61481 36277 ft 389 kts 303°
2026-04-22 17:15 34.55175 -83.66923 36277 ft 389 kts 303°
2026-04-22 17:16 34.58187 -83.72411 36272 ft 390 kts 303°
2026-04-22 17:16 34.61194 -83.77902 36266 ft 390 kts 303°
2026-04-22 17:17 34.64184 -83.83376 36269 ft 391 kts 303°
2026-04-22 17:17 34.67192 -83.88895 36280 ft 391 kts 303°
2026-04-22 17:18 34.70190 -83.94415 36290 ft 391 kts 303°
2026-04-22 17:18 34.73171 -83.99908 36290 ft 391 kts 303°
2026-04-22 17:19 34.79201 -84.10994 36293 ft 392 kts 303°
2026-04-22 17:20 34.85212 -84.22105 36281 ft 394 kts 303°
2026-04-22 17:21 34.89733 -84.30485 36268 ft 395 kts 303°
2026-04-22 17:22 34.94236 -84.38863 36254 ft 395 kts 303°
2026-04-22 17:23 34.98763 -84.47299 36249 ft 396 kts 303°
2026-04-22 17:23 35.03287 -84.55723 36242 ft 397 kts 303°
2026-04-22 17:24 35.06310 -84.61379 36238 ft 397 kts 303°
2026-04-22 17:24 35.09312 -84.67004 36236 ft 397 kts 303°
2026-04-22 17:25 35.12328 -84.72676 36236 ft 398 kts 303°
2026-04-22 17:25 35.15350 -84.78355 36235 ft 398 kts 303°
2026-04-22 17:26 35.18351 -84.84018 36235 ft 398 kts 303°
2026-04-22 17:26 35.21376 -84.89722 36234 ft 399 kts 303°
2026-04-22 17:27 35.24378 -84.95386 36234 ft 399 kts 303°
2026-04-22 17:27 35.27394 -85.01098 36233 ft 399 kts 303°
2026-04-22 17:28 35.30410 -85.06809 36234 ft 399 kts 303°
2026-04-22 17:28 35.33407 -85.12497 36240 ft 400 kts 303°
2026-04-22 17:29 35.36432 -85.18235 36242 ft 400 kts 303°
2026-04-22 17:29 35.39441 -85.23963 36243 ft 400 kts 303°
2026-04-22 17:30 35.42424 -85.29675 36240 ft 400 kts 303°
2026-04-22 17:30 35.45436 -85.35423 36241 ft 400 kts 303°
2026-04-22 17:31 35.48443 -85.41171 36244 ft 400 kts 303°
2026-04-22 17:31 35.51444 -85.46944 36248 ft 401 kts 303°
2026-04-22 17:32 35.54432 -85.52677 36246 ft 401 kts 303°
2026-04-22 17:32 35.57443 -85.58454 36248 ft 401 kts 303°
2026-04-22 17:33 35.60445 -85.64246 36249 ft 401 kts 303°
2026-04-22 17:33 35.63431 -85.70014 36248 ft 402 kts 303°
2026-04-22 17:34 35.66437 -85.75821 36250 ft 402 kts 303°
2026-04-22 17:34 35.69422 -85.81611 36250 ft 402 kts 303°
2026-04-22 17:35 35.72428 -85.87431 36252 ft 402 kts 303°
2026-04-22 17:35 35.75425 -85.93242 36247 ft 402 kts 303°
2026-04-22 17:36 35.78397 -85.99032 36250 ft 402 kts 303°
2026-04-22 17:36 35.81391 -86.04877 36253 ft 402 kts 303°
2026-04-22 17:37 35.84366 -86.10693 36242 ft 402 kts 303°
2026-04-22 17:37 35.87355 -86.16537 36237 ft 403 kts 303°
2026-04-22 17:38 35.90345 -86.22383 36244 ft 409 kts 305°
2026-04-22 17:38 35.93399 -86.28374 36239 ft 413 kts 305°
2026-04-22 17:39 35.96443 -86.34360 36236 ft 414 kts 305°
2026-04-22 17:40 36.01031 -86.43420 36265 ft 413 kts 305°
2026-04-22 17:40 36.04067 -86.49407 36266 ft 413 kts 305°
2026-04-22 17:41 36.07116 -86.55442 36266 ft 413 kts 305°
2026-04-22 17:41 36.10158 -86.61470 36256 ft 413 kts 305°
2026-04-22 17:42 36.13188 -86.67522 36257 ft 413 kts 302°
2026-04-22 17:42 36.15110 -86.72972 36256 ft 417 kts 295°
2026-04-22 17:43 36.17540 -86.80755 36226 ft 416 kts 295°
2026-04-22 17:43 36.19625 -86.87438 36224 ft 416 kts 295°
2026-04-22 17:44 36.21713 -86.94135 36223 ft 416 kts 295°
2026-04-22 17:44 36.23449 -86.99693 36221 ft 416 kts 295°
2026-04-22 17:45 36.25873 -87.07471 36224 ft 416 kts 294°
2026-04-22 17:45 36.27600 -87.13039 36225 ft 416 kts 294°
2026-04-22 17:46 36.29678 -87.19744 36228 ft 416 kts 294°
2026-04-22 17:46 36.31740 -87.26407 36226 ft 416 kts 294°
2026-04-22 17:47 36.33807 -87.33110 36228 ft 416 kts 294°
2026-04-22 17:47 36.35867 -87.39816 36229 ft 416 kts 294°
2026-04-22 17:48 36.37925 -87.46527 36228 ft 415 kts 294°
2026-04-22 17:48 36.39984 -87.53234 36228 ft 415 kts 294°
2026-04-22 17:49 36.42016 -87.59916 36226 ft 415 kts 294°
2026-04-22 17:49 36.44057 -87.66647 36224 ft 415 kts 294°
2026-04-22 17:50 36.46088 -87.73320 36235 ft 416 kts 294°
2026-04-22 17:50 36.48138 -87.80060 36227 ft 416 kts 294°
2026-04-22 17:51 36.50178 -87.86791 36220 ft 416 kts 294°
2026-04-22 17:51 36.52200 -87.93488 36215 ft 416 kts 294°
2026-04-22 17:52 36.54230 -88.00236 36207 ft 416 kts 294°
2026-04-22 17:52 36.56255 -88.06984 36197 ft 416 kts 294°
2026-04-22 17:53 36.58264 -88.13701 36195 ft 416 kts 294°
2026-04-22 17:53 36.60281 -88.20478 36202 ft 416 kts 294°
2026-04-22 17:54 36.62284 -88.27208 36190 ft 417 kts 294°
2026-04-22 17:54 36.64305 -88.33994 36202 ft 417 kts 294°
2026-04-22 17:55 36.66309 -88.40730 36194 ft 417 kts 293°
2026-04-22 17:55 36.68318 -88.47520 36202 ft 417 kts 293°
2026-04-22 17:56 36.70308 -88.54273 36192 ft 417 kts 293°
2026-04-22 17:56 36.72308 -88.61071 36194 ft 417 kts 293°
2026-04-22 17:57 36.74309 -88.67876 36194 ft 417 kts 293°
2026-04-22 17:57 36.76291 -88.74635 36182 ft 417 kts 293°
2026-04-22 17:58 36.78282 -88.81441 36174 ft 417 kts 293°
2026-04-22 17:58 36.80253 -88.88200 36181 ft 416 kts 293°
2026-04-22 17:59 36.82237 -88.95022 36173 ft 416 kts 293°
2026-04-22 17:59 36.84206 -89.01826 36180 ft 416 kts 293°
2026-04-22 18:00 36.85841 -89.07482 36179 ft 416 kts 293°
2026-04-22 18:00 36.88129 -89.15383 36183 ft 416 kts 293°
2026-04-22 18:01 36.90082 -89.22161 36178 ft 416 kts 293°
2026-04-22 18:01 36.92036 -89.28964 36179 ft 415 kts 293°
2026-04-22 18:02 36.93987 -89.35768 36172 ft 415 kts 292°
2026-04-22 18:02 36.95928 -89.42576 36155 ft 415 kts 292°
2026-04-22 18:03 36.97853 -89.49344 36157 ft 415 kts 293°
2026-04-22 18:03 36.99799 -89.56152 36162 ft 415 kts 292°
2026-04-22 18:04 37.01735 -89.62974 36161 ft 415 kts 292°
2026-04-22 18:04 37.03649 -89.69744 36159 ft 415 kts 292°
2026-04-22 18:05 37.05573 -89.76553 36157 ft 415 kts 292°
2026-04-22 18:05 37.07491 -89.83363 36150 ft 415 kts 292°
2026-04-22 18:06 37.09405 -89.90192 36150 ft 415 kts 292°
2026-04-22 18:06 37.11314 -89.97016 36149 ft 415 kts 292°
2026-04-22 18:07 37.13211 -90.03794 36151 ft 415 kts 292°
2026-04-22 18:07 37.15117 -90.10618 36152 ft 415 kts 292°
2026-04-22 18:08 37.17016 -90.17460 36152 ft 415 kts 292°
2026-04-22 18:08 37.18911 -90.24317 36149 ft 415 kts 292°
2026-04-22 18:09 37.20809 -90.31155 36151 ft 415 kts 292°
2026-04-22 18:09 37.22701 -90.38007 36151 ft 416 kts 292°
2026-04-22 18:10 37.24572 -90.44839 36149 ft 416 kts 292°
2026-04-22 18:10 37.26458 -90.51708 36152 ft 416 kts 291°
2026-04-22 18:11 37.28340 -90.58583 36152 ft 416 kts 291°
2026-04-22 18:11 37.30219 -90.65465 36154 ft 416 kts 291°
2026-04-22 18:12 37.32088 -90.72299 36152 ft 416 kts 291°
2026-04-22 18:12 37.33650 -90.78041 36153 ft 416 kts 291°
2026-04-22 18:13 37.35818 -90.86062 36152 ft 416 kts 291°
2026-04-22 18:13 37.37678 -90.92963 36149 ft 416 kts 291°
2026-04-22 18:14 37.39539 -90.99868 36148 ft 417 kts 291°
2026-04-22 18:14 37.41391 -91.06743 36149 ft 417 kts 291°
2026-04-22 18:15 37.43251 -91.13673 36149 ft 417 kts 291°
2026-04-22 18:15 37.45095 -91.20555 36149 ft 417 kts 290°
2026-04-22 18:16 37.46945 -91.27497 36150 ft 417 kts 290°
2026-04-22 18:16 37.48786 -91.34431 36148 ft 417 kts 290°
2026-04-22 18:17 37.50619 -91.41342 36155 ft 418 kts 290°
2026-04-22 18:17 37.52456 -91.48297 36150 ft 418 kts 290°
2026-04-22 18:18 37.54277 -91.55217 36151 ft 417 kts 290°
2026-04-22 18:18 37.56111 -91.62182 36151 ft 417 kts 290°
2026-04-22 18:19 37.57931 -91.69099 36149 ft 417 kts 290°
2026-04-22 18:19 37.59752 -91.76064 36146 ft 417 kts 290°
2026-04-22 18:20 37.61554 -91.82995 36137 ft 417 kts 290°
2026-04-22 18:20 37.63362 -91.89970 36131 ft 417 kts 290°
2026-04-22 18:21 37.65179 -91.96949 36126 ft 418 kts 290°
2026-04-22 18:21 37.66979 -92.03887 36130 ft 418 kts 289°
2026-04-22 18:22 37.68781 -92.10876 36122 ft 418 kts 289°
2026-04-22 18:22 37.70581 -92.17868 36121 ft 418 kts 289°
2026-04-22 18:23 37.72362 -92.24821 36123 ft 418 kts 289°
2026-04-22 18:23 37.74135 -92.31777 36114 ft 418 kts 289°
2026-04-22 18:24 37.76818 -92.42281 36138 ft 418 kts 289°
2026-04-22 18:25 37.79489 -92.52763 36135 ft 418 kts 289°
2026-04-22 18:25 37.81259 -92.59783 36139 ft 418 kts 289°
2026-04-22 18:26 37.83902 -92.70281 36138 ft 418 kts 288°
2026-04-22 18:26 37.85667 -92.77301 36131 ft 418 kts 288°
2026-04-22 18:27 37.87417 -92.84292 36134 ft 418 kts 288°
2026-04-22 18:27 37.89174 -92.91326 36133 ft 418 kts 288°
2026-04-22 18:28 37.90919 -92.98324 36131 ft 418 kts 288°
2026-04-22 18:28 37.92668 -93.05360 36132 ft 418 kts 288°
2026-04-22 18:29 37.94410 -93.12394 36132 ft 418 kts 288°
2026-04-22 18:29 37.96144 -93.19435 36129 ft 418 kts 288°
2026-04-22 18:30 37.98738 -93.29970 36124 ft 418 kts 288°
2026-04-22 18:31 38.00472 -93.37027 36124 ft 418 kts 287°
2026-04-22 18:31 38.02189 -93.44052 36121 ft 418 kts 287°
2026-04-22 18:32 38.03623 -93.49929 36125 ft 418 kts 287°
2026-04-22 18:32 38.05622 -93.58144 36113 ft 418 kts 287°
2026-04-22 18:33 38.07334 -93.65205 36112 ft 418 kts 287°
2026-04-22 18:33 38.08750 -93.71079 36113 ft 418 kts 287°
2026-04-22 18:34 38.10435 -93.78103 36109 ft 418 kts 287°
2026-04-22 18:34 38.12134 -93.85171 36115 ft 418 kts 287°
2026-04-22 18:35 38.13822 -93.92204 36114 ft 418 kts 287°
2026-04-22 18:35 38.15507 -93.99279 36115 ft 418 kts 286°
2026-04-22 18:36 38.17192 -94.06367 36113 ft 418 kts 286°
2026-04-22 18:36 38.18870 -94.13405 36112 ft 418 kts 286°
2026-04-22 18:37 38.20545 -94.20485 36110 ft 417 kts 286°
2026-04-22 18:37 38.22219 -94.27563 36104 ft 417 kts 286°
2026-04-22 18:38 38.23880 -94.34605 36106 ft 417 kts 286°
2026-04-22 18:38 38.25542 -94.41699 36102 ft 418 kts 285°
2026-04-22 18:39 38.27724 -94.52429 36099 ft 416 kts 279°
2026-04-22 18:39 38.28733 -94.59655 36094 ft 416 kts 279°
2026-04-22 18:40 38.29751 -94.66911 36087 ft 416 kts 279°
2026-04-22 18:40 38.30773 -94.74193 36092 ft 417 kts 279°
2026-04-22 18:41 38.31786 -94.81428 36087 ft 417 kts 279°
2026-04-22 18:41 38.32793 -94.88718 36090 ft 417 kts 279°
2026-04-22 18:42 38.33793 -94.95960 36085 ft 417 kts 279°
2026-04-22 18:42 38.34791 -95.03238 36087 ft 416 kts 278°
2026-04-22 18:43 38.35782 -95.10517 36080 ft 416 kts 278°
2026-04-22 18:43 38.36774 -95.17796 36075 ft 416 kts 278°
2026-04-22 18:44 38.37744 -95.25035 36082 ft 416 kts 278°
2026-04-22 18:44 38.38718 -95.32323 36074 ft 416 kts 278°
2026-04-22 18:45 38.39688 -95.39556 36070 ft 416 kts 278°
2026-04-22 18:45 38.40666 -95.46857 36074 ft 416 kts 278°
2026-04-22 18:46 38.41627 -95.54109 36067 ft 416 kts 278°
2026-04-22 18:46 38.42587 -95.61416 36065 ft 416 kts 278°
2026-04-22 18:47 38.43543 -95.68718 36069 ft 417 kts 277°
2026-04-22 18:47 38.44489 -95.75969 36067 ft 416 kts 277°
2026-04-22 18:48 38.45439 -95.83267 36064 ft 417 kts 277°
2026-04-22 18:48 38.46383 -95.90576 36063 ft 417 kts 277°
2026-04-22 18:49 38.47317 -95.97846 36054 ft 417 kts 277°
2026-04-22 18:49 38.48251 -96.05162 36046 ft 417 kts 277°
2026-04-22 18:50 38.49177 -96.12430 36042 ft 416 kts 277°
2026-04-22 18:50 38.50108 -96.19744 36047 ft 416 kts 277°
2026-04-22 18:51 38.51022 -96.27011 36045 ft 416 kts 276°
2026-04-22 18:51 38.51933 -96.34331 36044 ft 416 kts 276°
2026-04-22 18:52 38.52843 -96.41596 36034 ft 416 kts 276°
2026-04-22 18:52 38.53753 -96.48908 36022 ft 416 kts 276°
2026-04-22 18:53 38.54650 -96.56232 36015 ft 416 kts 276°
2026-04-22 18:53 38.55540 -96.63499 36006 ft 416 kts 276°
2026-04-22 18:54 38.56435 -96.70823 36003 ft 416 kts 276°
2026-04-22 18:54 38.57326 -96.78154 35995 ft 416 kts 276°
2026-04-22 18:55 38.58203 -96.85426 35996 ft 416 kts 276°
2026-04-22 18:55 38.59080 -96.92750 35987 ft 417 kts 275°
2026-04-22 18:56 38.59960 -97.00087 35985 ft 417 kts 275°
2026-04-22 18:56 38.60831 -97.07373 35985 ft 417 kts 275°
2026-04-22 18:57 38.61698 -97.14724 35987 ft 417 kts 275°
2026-04-22 18:57 38.62551 -97.22029 35977 ft 417 kts 275°
2026-04-22 18:58 38.63410 -97.29384 35979 ft 417 kts 275°
2026-04-22 18:58 38.64266 -97.36743 35972 ft 417 kts 275°
2026-04-22 18:59 38.65112 -97.44060 35967 ft 418 kts 275°
2026-04-22 18:59 38.65958 -97.51426 35973 ft 418 kts 275°
2026-04-22 19:00 38.66802 -97.58811 35972 ft 418 kts 275°
2026-04-22 19:00 38.67641 -97.66136 35973 ft 418 kts 275°
2026-04-22 19:01 38.68480 -97.73515 35977 ft 418 kts 275°
2026-04-22 19:01 38.69300 -97.80848 35972 ft 418 kts 274°
2026-04-22 19:02 38.70117 -97.88229 35969 ft 418 kts 274°
2026-04-22 19:02 38.70926 -97.95562 35957 ft 417 kts 274°
2026-04-22 19:03 38.71746 -98.02932 35953 ft 417 kts 274°
2026-04-22 19:03 38.72554 -98.10312 35945 ft 417 kts 274°
2026-04-22 19:04 38.73354 -98.17653 35941 ft 417 kts 274°
2026-04-22 19:04 38.74157 -98.25035 35937 ft 417 kts 274°
2026-04-22 19:05 38.74941 -98.32364 35925 ft 417 kts 274°
2026-04-22 19:05 38.75725 -98.39748 35925 ft 417 kts 274°
2026-04-22 19:06 38.76510 -98.47079 35923 ft 417 kts 274°
2026-04-22 19:07 38.77687 -98.58158 35922 ft 418 kts 273°
2026-04-22 19:07 38.78457 -98.65537 35922 ft 418 kts 273°
2026-04-22 19:08 38.79217 -98.72888 35929 ft 418 kts 273°
2026-04-22 19:08 38.79976 -98.80270 35929 ft 418 kts 273°
2026-04-22 19:09 38.80737 -98.87626 35931 ft 417 kts 273°
2026-04-22 19:09 38.81366 -98.93774 35931 ft 417 kts 273°
2026-04-22 19:10 38.82253 -99.02402 35926 ft 417 kts 273°
2026-04-22 19:10 38.82992 -99.09778 35913 ft 416 kts 273°
2026-04-22 19:11 38.83721 -99.17109 35910 ft 416 kts 273°
2026-04-22 19:11 38.84456 -99.24484 35908 ft 416 kts 273°
2026-04-22 19:12 38.84833 -99.31845 35907 ft 412 kts 266°
2026-04-22 19:12 38.84907 -99.39145 35906 ft 412 kts 266°
2026-04-22 19:13 38.84965 -99.46489 35904 ft 411 kts 266°
2026-04-22 19:13 38.85034 -99.53842 35900 ft 411 kts 266°
2026-04-22 19:14 38.85106 -99.61185 35890 ft 411 kts 266°
2026-04-22 19:14 38.85166 -99.68471 35879 ft 410 kts 266°
2026-04-22 19:15 38.85216 -99.74581 35864 ft 410 kts 266°
2026-04-22 19:15 38.85280 -99.83086 35862 ft 409 kts 266°
2026-04-22 19:16 38.85325 -99.90398 35863 ft 409 kts 266°
2026-04-22 19:16 38.85368 -99.97715 35855 ft 409 kts 267°
2026-04-22 19:17 38.85407 -100.04973 35852 ft 409 kts 267°
2026-04-22 19:17 38.85441 -100.12262 35841 ft 408 kts 267°
2026-04-22 19:18 38.85470 -100.19503 35838 ft 408 kts 267°
2026-04-22 19:18 38.85496 -100.26781 35831 ft 408 kts 267°
2026-04-22 19:19 38.85520 -100.34025 35819 ft 407 kts 267°
2026-04-22 19:19 38.85540 -100.41302 35820 ft 407 kts 267°
2026-04-22 19:20 38.85552 -100.48531 35810 ft 406 kts 266°
2026-04-22 19:20 38.85555 -100.55785 35810 ft 406 kts 266°
2026-04-22 19:21 38.85553 -100.63035 35813 ft 406 kts 266°
2026-04-22 19:21 38.85547 -100.69058 35812 ft 405 kts 266°
2026-04-22 19:22 38.85542 -100.77481 35814 ft 405 kts 266°
2026-04-22 19:22 38.85534 -100.83502 35812 ft 405 kts 266°
2026-04-22 19:23 38.85526 -100.90738 35800 ft 405 kts 266°
2026-04-22 19:23 38.85506 -100.97966 35792 ft 404 kts 266°
2026-04-22 19:24 38.85487 -101.05143 35781 ft 404 kts 266°
2026-04-22 19:24 38.85463 -101.12355 35771 ft 404 kts 265°
2026-04-22 19:25 38.85423 -101.19568 35766 ft 403 kts 265°
2026-04-22 19:25 38.85380 -101.26727 35759 ft 403 kts 265°
2026-04-22 19:26 38.85340 -101.33922 35753 ft 402 kts 265°
2026-04-22 19:26 38.85297 -101.41060 35747 ft 402 kts 265°
2026-04-22 19:27 38.85239 -101.48249 35739 ft 402 kts 265°
2026-04-22 19:27 38.85182 -101.55431 35734 ft 402 kts 265°
2026-04-22 19:28 38.85133 -101.62583 35728 ft 402 kts 265°
2026-04-22 19:28 38.85076 -101.69772 35719 ft 402 kts 265°
2026-04-22 19:29 38.85014 -101.76909 35716 ft 402 kts 264°
2026-04-22 19:29 38.84939 -101.84093 35714 ft 402 kts 264°
2026-04-22 19:30 38.84867 -101.90066 35710 ft 402 kts 264°
2026-04-22 19:30 38.84769 -101.98422 35708 ft 402 kts 264°
2026-04-22 19:31 38.84693 -102.05562 35704 ft 402 kts 264°
2026-04-22 19:31 38.84606 -102.12759 35699 ft 402 kts 264°
2026-04-22 19:32 38.84511 -102.19899 35698 ft 402 kts 264°
2026-04-22 19:32 38.84785 -102.27119 35694 ft 410 kts 276°
2026-04-22 19:33 38.86295 -102.34194 35687 ft 414 kts 280°
2026-04-22 19:33 38.87857 -102.41319 35683 ft 414 kts 279°
2026-04-22 19:34 38.89400 -102.48435 35682 ft 414 kts 279°
2026-04-22 19:34 38.90944 -102.55529 35681 ft 414 kts 279°
2026-04-22 19:35 38.92489 -102.62672 35679 ft 413 kts 279°
2026-04-22 19:35 38.94015 -102.69783 35032 ft 419 kts 279°
2026-04-22 19:35 38.94788 -102.73385 34615 ft 416 kts 279°
2026-04-22 19:36 38.95557 -102.76969 34181 ft 414 kts 279°
2026-04-22 19:36 38.96322 -102.80533 33737 ft 412 kts 279°
2026-04-22 19:36 38.97080 -102.84073 33244 ft 409 kts 279°
2026-04-22 19:36 38.97833 -102.87584 32792 ft 405 kts 279°
2026-04-22 19:37 38.98570 -102.91020 32354 ft 401 kts 279°
2026-04-22 19:37 38.99310 -102.94459 31908 ft 397 kts 279°
2026-04-22 19:37 39.00040 -102.97867 31475 ft 393 kts 279°
2026-04-22 19:37 39.00763 -103.01255 31051 ft 389 kts 279°
2026-04-22 19:38 39.01476 -103.04600 30637 ft 386 kts 280°
2026-04-22 19:38 39.02181 -103.07909 30236 ft 381 kts 280°
2026-04-22 19:38 39.02878 -103.11187 29838 ft 377 kts 280°
2026-04-22 19:38 39.03566 -103.14430 29406 ft 373 kts 280°
2026-04-22 19:39 39.04281 -103.17574 29033 ft 370 kts 285°
2026-04-22 19:39 39.05377 -103.20587 28658 ft 372 kts 295°
2026-04-22 19:39 39.06727 -103.23420 28299 ft 369 kts 296°
2026-04-22 19:39 39.08068 -103.26226 27936 ft 365 kts 296°
2026-04-22 19:40 39.09391 -103.29004 27591 ft 362 kts 295°
2026-04-22 19:40 39.10698 -103.31760 27237 ft 359 kts 295°
2026-04-22 19:40 39.11974 -103.34462 26890 ft 356 kts 295°
2026-04-22 19:40 39.13255 -103.37181 26544 ft 352 kts 295°
2026-04-22 19:41 39.14525 -103.39873 26178 ft 349 kts 295°
2026-04-22 19:41 39.15786 -103.42543 25818 ft 346 kts 295°
2026-04-22 19:41 39.17033 -103.45186 25462 ft 343 kts 295°
2026-04-22 19:41 39.18254 -103.47777 25098 ft 341 kts 295°
2026-04-22 19:42 39.19480 -103.50382 24737 ft 338 kts 295°
2026-04-22 19:42 39.20697 -103.52967 24371 ft 336 kts 295°
2026-04-22 19:42 39.21907 -103.55533 24008 ft 334 kts 295°
2026-04-22 19:42 39.23111 -103.58090 23637 ft 332 kts 295°
2026-04-22 19:43 39.25481 -103.63143 22836 ft 328 kts 295°
2026-04-22 19:43 39.26655 -103.65654 22458 ft 324 kts 295°
2026-04-22 19:43 39.27815 -103.68131 22074 ft 321 kts 295°
2026-04-22 19:44 39.28976 -103.70586 21731 ft 319 kts 296°
2026-04-22 19:44 39.30215 -103.73041 21516 ft 330 kts 298°
2026-04-22 19:44 39.31503 -103.75480 21265 ft 333 kts 299°
2026-04-22 19:44 39.32832 -103.77947 20997 ft 334 kts 300°
2026-04-22 19:45 39.34161 -103.80406 20737 ft 333 kts 300°
2026-04-22 19:45 39.35485 -103.82864 20473 ft 332 kts 299°
2026-04-22 19:45 39.36783 -103.85291 20206 ft 331 kts 299°
2026-04-22 19:45 39.38088 -103.87751 19936 ft 330 kts 299°
2026-04-22 19:46 39.39380 -103.90206 19673 ft 329 kts 299°
2026-04-22 19:46 39.40667 -103.92658 19408 ft 328 kts 299°
2026-04-22 19:46 39.41935 -103.95074 19140 ft 327 kts 299°
2026-04-22 19:46 39.43214 -103.97508 18878 ft 326 kts 299°
2026-04-22 19:47 39.44493 -103.99931 18618 ft 325 kts 300°
2026-04-22 19:47 39.45816 -104.02312 18366 ft 325 kts 301°
2026-04-22 19:47 39.47169 -104.04651 18107 ft 324 kts 302°
2026-04-22 19:47 39.48531 -104.06970 17854 ft 322 kts 302°
2026-04-22 19:48 39.49868 -104.09246 17608 ft 320 kts 302°
2026-04-22 19:48 39.51210 -104.11546 17375 ft 319 kts 302°
2026-04-22 19:48 39.52540 -104.13841 17135 ft 317 kts 302°
2026-04-22 19:48 39.53861 -104.16136 16904 ft 316 kts 302°
2026-04-22 19:49 39.55157 -104.18397 16654 ft 316 kts 302°
2026-04-22 19:49 39.56478 -104.20671 16400 ft 315 kts 303°
2026-04-22 19:49 39.57828 -104.22909 16145 ft 315 kts 303°
2026-04-22 19:49 39.59183 -104.25117 15895 ft 314 kts 304°
2026-04-22 19:50 39.60560 -104.27352 15650 ft 314 kts 304°
2026-04-22 19:50 39.61925 -104.29570 15389 ft 314 kts 304°
2026-04-22 19:50 39.63283 -104.31788 15174 ft 313 kts 303°
2026-04-22 19:50 39.64615 -104.33977 14946 ft 312 kts 303°
2026-04-22 19:51 39.65959 -104.36189 14717 ft 312 kts 303°
2026-04-22 19:51 39.67302 -104.38402 14492 ft 311 kts 304°
2026-04-22 19:51 39.68644 -104.40617 14271 ft 310 kts 303°
2026-04-22 19:51 39.69958 -104.42787 14053 ft 309 kts 303°
2026-04-22 19:52 39.71286 -104.44985 13837 ft 309 kts 303°
2026-04-22 19:52 39.72773 -104.47026 13618 ft 314 kts 316°
2026-04-22 19:52 39.74632 -104.48558 13389 ft 319 kts 331°
2026-04-22 19:52 39.76748 -104.49480 13227 ft 322 kts 341°
2026-04-22 19:53 39.78889 -104.50214 12978 ft 321 kts 341°
2026-04-22 19:53 39.81055 -104.50958 12707 ft 321 kts 341°
2026-04-22 19:53 39.83240 -104.51716 12142 ft 326 kts 341°
2026-04-22 19:53 39.85472 -104.52247 11845 ft 325 kts 353°
2026-04-22 19:54 39.87727 -104.52281 11403 ft 327 kts 358°
2026-04-22 19:54 39.89979 -104.52255 11207 ft 318 kts 358°
2026-04-22 19:54 39.92171 -104.52218 11041 ft 309 kts 358°
2026-04-22 19:54 39.94285 -104.52185 10955 ft 298 kts 357°
2026-04-22 19:55 39.96286 -104.52163 10946 ft 285 kts 357°
2026-04-22 19:55 39.98237 -104.52148 10939 ft 278 kts 357°
2026-04-22 19:55 40.00204 -104.52142 10921 ft 278 kts 357°
2026-04-22 19:55 40.02117 -104.52132 10909 ft 273 kts 357°
2026-04-22 19:56 40.04015 -104.52127 10897 ft 273 kts 357°
2026-04-22 19:56 40.05913 -104.52127 10884 ft 272 kts 356°
2026-04-22 19:56 40.07736 -104.52595 10873 ft 264 kts 330°
2026-04-22 19:56 40.09109 -104.54045 10827 ft 255 kts 301°
2026-04-22 19:57 40.09768 -104.56116 10587 ft 244 kts 275°
2026-04-22 19:57 40.09961 -104.58312 10317 ft 243 kts 271°
2026-04-22 19:57 40.10093 -104.60522 9960 ft 243 kts 270°
2026-04-22 19:57 40.10129 -104.62722 9596 ft 240 kts 258°
2026-04-22 19:58 40.09571 -104.64711 9239 ft 235 kts 234°
2026-04-22 19:58 40.08411 -104.66176 8873 ft 233 kts 210°
2026-04-22 19:58 40.06901 -104.66956 8519 ft 234 kts 199°
2026-04-22 19:58 40.05353 -104.67625 8166 ft 234 kts 199°
2026-04-22 19:59 40.03811 -104.68282 7910 ft 229 kts 197°
2026-04-22 20:00 39.95813 -104.68606 6588 ft 142 kts 184°
2026-04-22 20:00 39.94856 -104.68618 6420 ft 136 kts 185°
2026-04-22 20:01 39.93919 -104.68630 6251 ft 133 kts 184°
2026-04-22 20:01 39.93018 -104.68641 6090 ft 130 kts 182°
2026-04-22 20:01 39.92112 -104.68652 5925 ft 129 kts 180°
2026-04-22 20:01 39.91221 -104.68663 5747 ft 126 kts 180°
2026-04-22 20:02 39.90335 -104.68677 5545 ft 125 kts 179°
2026-04-22 20:02 39.89466 -104.68686 5379 ft 123 kts 178°
2026-04-22 20:02 39.88704 -104.68694 5357 ft 92 kts 180°
2026-04-22 20:02 39.88133 -104.68697 5363 ft 80 kts 180°
2026-04-22 20:03 39.87588 -104.68702 5364 ft 77 kts 180°
2026-04-22 20:03 39.87067 -104.68715 5358 ft 68 kts 181°
2026-04-22 20:03 39.86663 -104.68712 5366 ft 45 kts 179°
2026-04-22 20:03 39.86459 -104.68709 5366 ft 19 kts 151°
2026-04-22 20:04 39.86426 -104.68537 5368 ft 22 kts 119°
2026-04-22 20:04 39.86275 -104.68509 5366 ft 25 kts 181°
2026-04-22 20:04 39.86101 -104.68507 5364 ft 18 kts 176°
2026-04-22 20:04 39.86033 -104.68450 5366 ft 13 kts 103°
2026-04-22 20:05 39.86029 -104.68326 5375 ft 16 kts 90°
2026-04-22 20:05 39.86035 -104.68180 5386 ft 15 kts 84°
2026-04-22 20:05 39.86034 -104.68026 5387 ft 19 kts 93°
2026-04-22 20:05 39.85992 -104.67900 5382 ft 14 kts 176°
2026-04-22 20:06 39.85939 -104.67902 5387 ft 0 kts 184°